This is the latest recevied weather packets stored in our database for station/object DL6DJ-15. If no packets are shown the sender has not sent any weather packets the latest 10 day(s).
| Time | Temp. | Humidity | Pressure | Rain* | Wind** | Luminosity | Snow |
|---|---|---|---|---|---|---|---|
| 1788413397 | 14.44° C | 83% | 1023.5 hPa | - | - | - | - |
| 1788413097 | 13.89° C | 85% | 1023.4 hPa | - | - | - | - |
| 1788412797 | 13.89° C | 85% | 1023.4 hPa | - | - | - | - |
| 1788412496 | 13.89° C | 83% | 1023.3 hPa | - | - | - | - |
| 1788412196 | 13.89° C | 83% | 1023.2 hPa | - | - | - | - |
| 1788411895 | 13.89° C | 84% | 1023.3 hPa | - | - | - | - |
| 1788411595 | 13.33° C | 84% | 1023.4 hPa | - | - | - | - |
| 1788411294 | 13.33° C | 86% | 1023.4 hPa | - | - | - | - |
| 1788410994 | 12.78° C | 88% | 1023.3 hPa | - | - | - | - |
| 1788403900 | 13.89° C | 78% | 1023.1 hPa | - | - | - | - |
| 1788403599 | 13.89° C | 78% | 1023.1 hPa | - | - | - | - |
| 1788403299 | 13.89° C | 79% | 1023 hPa | - | - | - | - |
| 1788402999 | 14.44° C | 79% | 1023.1 hPa | - | - | - | - |
| 1788402699 | 14.44° C | 78% | 1023.1 hPa | - | - | - | - |
| 1788402398 | 14.44° C | 78% | 1023 hPa | - | - | - | - |
| 1788402098 | 14.44° C | 79% | 1023.1 hPa | - | - | - | - |
| 1788401797 | 14.44° C | 79% | 1023.2 hPa | - | - | - | - |
| 1788401497 | 14.44° C | 79% | 1023.2 hPa | - | - | - | - |
| 1788401196 | 14.44° C | 78% | 1023.2 hPa | - | - | - | - |
| 1788400896 | 14.44° C | 78% | 1023.1 hPa | - | - | - | - |
| 1788400595 | 14.44° C | 78% | 1023.1 hPa | - | - | - | - |
| 1788400295 | 14.44° C | 78% | 1023 hPa | - | - | - | - |
| 1788399995 | 14.44° C | 78% | 1023.1 hPa | - | - | - | - |
| 1788399695 | 14.44° C | 77% | 1023.1 hPa | - | - | - | - |
| 1788399394 | 15° C | 77% | 1023 hPa | - | - | - | - |
* Rain since midnight (hover to see other rain measurements)
** Current wind speed in m/s (hover to see current wind gust speed)